Regional Weather Roundup
Issued by NWS Bismarck, ND

Home | Current Version | Previous Version | Text Only | Print | Product List | Glossary On
Versions: 1 2 3 4 5 6 7 8 9 10 11 12 13 14 15 16 17 18 19 20 21 22 23 24 25 26 27 28 29 30 31 32 33 34 35 36 37 38 39 40 41 42 43 44 45 46 47 48 49 50
830
ASUS43 KBIS 280410
RWRBIS

NWR BROADCAST TEXT
NATIONAL WEATHER SERVICE BISMARCK ND
1100 PM CDT TUE JUN 27 2017

NOTE: "FAIR" INDICATES FEW OR NO CLOUDS BELOW 12,000 FEET WITH NO
SIGNIFICANT WEATHER AND/OR OBSTRUCTIONS TO VISIBILITY.


CITY           SKY/WX    TMP DP  RH WIND       PRES   REMARKS
WILLISTON      PTCLDY    69  58  67 N10       29.64R
MINOT          CLOUDY    73  60  63 N10       29.53R
MINOT AFB      CLOUDY    73  61  66 NW14      29.53R
BISMARCK       CLOUDY    68  65  90 NE9       29.53R
DICKINSON      CLOUDY    72  51  47 NW17G25   29.64R
GARRISON         N/A     66  62  87 SE5       29.54R
HETTINGER ARPT CLOUDY    75  50  41 NW18      29.66R
JAMESTOWN      CLOUDY    72  51  47 SE15      29.53F
HAZEN          MOCLDY    66  63  88 SW6       29.58R
LINTON         FAIR     N/A N/A N/A S14       29.50R
MANDAN         FAIR      66  66 100 N7        29.53F
STANLEY        FAIR      66  59  77 N14       29.63R
TIOGA          FAIR      64  59  82 NW12G17   29.64R
WATFORD CITY   FAIR      68  55  64 NW7       29.63R
$$

CITY           SKY/WX    TMP DP  RH WIND       PRES   REMARKS
GRAND FORKS    CLOUDY    68  50  52 SE14      29.62R
GRAND FORKS AF CLOUDY    65  48  54 SE10      29.62R
DEVILS LAKE    CLOUDY    69  55  60 SE10      29.58R
FARGO          CLOUDY    71  50  47 SE14G24   29.63S
CAVALIER       FAIR      68  48  49 S12G18    29.60R
GRAFTON        FAIR      66  48  52 SE15G22   29.63R
GWINNER        CLOUDY    72  52  49 SE13      29.60F
LANGDON        FAIR      64  52  63 SE15      29.61R
ROLLA            N/A     66  54  63 SE8       29.58S
$$

CITY           SKY/WX    TMP DP  RH WIND       PRES   REMARKS
ABERDEEN       MOCLDY    76  62  62 S20G30    29.56R
MOBRIDGE       CLOUDY    75  55  49 SW9       29.47R
BUFFALO          N/A     69  51  52 NW28G36   29.64R
RAPID CITY     CLOUDY    67  52  58 NW15      29.70R
GLASGOW        PTCLDY    68  43  40 N10       29.71R
SIDNEY         CLOUDY    71  57  61 N9        29.66R
WOLF POINT     CLOUDY    71  49  45 NW8       29.68R
GLENDIVE       CLOUDY    64  58  80 NW10      29.70R
MILES CITY     CLOUDY    66  52  60 W8        29.75R
BAKER          CLOUDY    65  52  62 NW12      29.71F
$$

CITY           SKY/WX    TMP DP  RH WIND       PRES   REMARKS
BILLINGS       CLOUDY    68  46  45 CALM      29.82R
GREAT FALLS    CLEAR     64  47  53 S8        29.76S
REGINA         PTCLDY    59  45  58 W13       29.66R
ESTEVAN        MOCLDY    61  59  94 NW8       29.62R
$$





USA.gov is the U.S. government's official web portal to all federal, state and local government web resources and services.